Location: Crescent
(42.8242°N, 73.7329°W)
Time: 18:19:50
(UTC+00:00)

SR - Visible Passes

Search period start: 18 February 2026 00:00
Search period end: 28 February 2026 00:00
Orbit: 574 x 847 km, 66.7° (Epoch: 17 February)

Date Brightness Start Highest point End Pass type
(mag) Time Alt. Az. Time Alt. Az. Time Alt. Az.
18 Feb ? 09:34:30 49° N 09:34:30 49° N 09:37:51 10° NNE visible
18 Feb ? 11:14:32 10° NW 11:16:00 11° NW 11:17:29 10° NNW visible
19 Feb ? 08:41:21 19° NE 08:41:21 19° NE 08:42:46 10° NE visible
19 Feb ? 10:20:24 21° NW 10:20:28 21° NW 10:23:56 10° N visible
20 Feb ? 09:27:08 27° N 09:27:08 27° N 09:29:30 10° NNE visible
21 Feb ? 08:33:49 15° NE 08:33:49 15° NE 08:34:39 10° NE visible
21 Feb ? 10:12:52 15° NW 10:12:52 15° NW 10:15:10 10° N visible
22 Feb ? 09:19:28 18° N 09:19:28 18° N 09:21:02 10° NNE visible
23 Feb ? 08:26:02 12° NNE 08:26:02 12° NNE 08:26:23 10° NNE visible
23 Feb ? 10:05:04 11° NNW 10:05:04 11° NNW 10:05:56 10° NNW visible
24 Feb ? 09:11:35 14° N 09:11:35 14° N 09:12:26 10° N visible
26 Feb ? 09:03:33 10° N 09:03:33 10° N 09:03:39 10° N visible
